Wind_Speed
6 6 6 5 5 4 3 1 2 4 5 7 10 10 12 11 10 10 8 8 8 7 7 7 7 8 8 9 9 8 9 9 10 10 10 9 9 9 8 8 8 8 8 8 8 7 6 6 5
7 7 6 5 6 6 3 2 4 6 6 7 9 11 11 12 11 10 9 9 9 8 8 8 8 8 9 9 9 10 10 10 10 11 11 10 10 9 9 9 9 9 9 8 8 8 7 7 6
8 7 6 5 6 6 5 5 6 7 7 8 10 11 11 12 10 10 10 9 8 9 9 9 9 9 10 11 11 11 11 11 11 11 11 11 10 10 10 10 10 9 9 9 8 8 8 8 7
8 8 7 6 7 7 7 8 9 8 8 11 12 12 13 12 11 11 11 10 10 10 11 11 11 11 11 12 12 12 12 12 12 12 12 11 11 10 10 10 10 10 10 9 9 9 9 9 8
9 8 8 7 7 6 6 8 10 10 10 12 14 14 14 14 12 11 12 12 11 11 12 12 12 12 12 13 13 13 12 13 13 13 12 12 12 11 11 11 11 10 11 10 10 10 10 10 9
9 9 9 8 7 7 8 8 10 11 13 13 15 15 14 13 12 13 12 12 12 12 11 12 13 13 14 14 14 14 14 13 13 13 13 13 12 12 11 11 11 11 11 11 11 10 10 10 10
10 10 9 8 9 9 8 9 11 13 14 15 16 16 16 14 13 13 13 14 13 12 12 13 14 13 15 15 15 15 15 14 14 14 14 13 13 13 12 12 12 12 11 11 12 11 10 10 10
12 11 10 9 10 10 10 11 13 14 15 15 16 17 18 17 15 15 15 15 13 13 14 14 14 14 15 16 16 15 15 15 15 14 14 14 14 14 13 13 13 12 12 12 11 12 11 11 10
13 12 11 10 10 10 12 13 13 13 14 15 16 17 18 17 17 17 16 16 15 15 15 15 15 15 15 15 16 16 15 16 15 15 15 15 14 14 14 14 13 13 13 12 12 12 12 12 11
13 13 11 11 11 11 12 13 13 13 13 15 16 17 18 17 16 16 17 17 17 16 16 16 16 16 15 15 16 16 16 16 16 16 15 16 15 14 14 15 14 14 14 13 13 13 12 12 11
15 13 12 11 12 13 14 14 14 14 13 14 15 16 18 18 17 17 18 18 18 17 16 16 16 16 16 16 16 17 17 17 16 16 16 15 15 15 15 15 14 14 14 14 14 13 12 12 12
15 14 13 12 13 14 14 14 14 14 14 14 15 16 17 17 17 17 17 18 18 18 17 16 16 16 17 17 17 17 18 18 16 16 17 16 15 15 15 16 15 15 15 15 14 13 13 13 12
16 14 13 13 14 14 14 13 14 14 14 15 16 16 17 16 16 18 18 18 18 19 18 18 17 17 17 17 17 17 17 17 16 16 16 16 16 15 15 16 16 15 15 15 14 14 13 14 13
14 14 14 13 13 14 13 13 13 14 15 15 16 17 16 16 17 18 18 18 18 18 19 18 17 17 17 16 16 17 18 18 17 15 14 14 15 15 15 16 15 15 15 14 14 14 15 15 15
13 13 13 13 13 13 14 14 14 14 15 16 17 18 17 18 19 19 19 18 18 18 18 18 17 16 15 15 16 17 16 16 16 14 14 14 14 15 15 15 15 16 15 15 14 15 14 15 16
14 13 13 12 14 14 15 16 15 15 15 16 18 18 18 18 19 19 19 19 19 19 18 17 16 16 15 15 15 17 16 15 15 15 14 14 14 14 14 14 15 15 16 16 15 15 15 16 16
13 13 13 13 14 15 16 16 15 16 17 17 17 17 18 19 20 20 19 19 19 18 17 16 17 16 16 15 15 16 16 15 15 15 15 14 14 15 15 14 15 16 16 16 17 16 17 17 17
12 12 13 13 14 15 16 17 17 17 17 17 17 17 17 18 19 19 19 19 19 17 16 16 17 16 16 16 15 14 14 14 14 14 14 14 14 14 15 14 15 15 15 15 16 17 17 17 17
12 13 12 12 13 16 17 18 17 16 16 16 16 17 16 18 19 19 18 19 18 18 17 16 16 16 16 16 15 14 13 13 13 13 13 13 14 14 15 15 15 15 15 15 15 16 17 18 18
12 14 14 14 14 17 18 18 16 15 16 16 17 16 16 17 18 18 18 18 18 17 17 17 17 16 16 15 15 14 14 13 13 13 13 14 14 14 14 15 15 14 15 16 16 16 17 18 19
15 16 15 15 14 15 17 17 16 15 15 17 17 16 16 16 17 18 17 17 17 17 17 16 16 16 15 14 14 14 14 14 13 13 14 15 15 15 15 15 16 15 15 16 16 16 17 18 18
15 15 16 16 16 15 16 18 17 16 15 16 16 16 16 15 17 17 17 16 15 15 15 16 16 15 15 14 15 14 14 13 14 14 15 15 16 17 17 16 16 16 15 15 16 17 17 18 18
16 15 17 17 18 18 17 19 17 16 16 16 16 16 16 16 16 16 16 15 14 13 14 15 16 16 15 14 15 15 15 14 14 15 15 16 16 16 17 17 17 16 16 16 16 17 17 18 19
16 16 17 17 17 18 17 19 18 17 16 17 17 16 16 16 16 15 15 14 14 13 13 15 15 15 15 14 14 15 15 14 15 15 16 16 16 16 16 16 16 17 17 17 17 17 18 18 18
17 17 18 19 18 18 17 19 19 18 18 18 17 16 16 16 16 16 15 15 15 14 14 15 15 15 14 14 14 14 15 15 15 16 16 17 17 16 17 17 16 16 17 17 17 17 17 17 18
18 18 18 19 19 19 18 19 17 17 17 17 17 16 17 17 16 15 15 15 15 14 15 15 16 15 14 14 14 14 15 15 16 16 16 17 17 17 17 17 17 17 17 17 17 17 17 17 18
17 18 18 19 19 20 19 18 17 17 17 17 17 16 16 16 16 16 16 16 14 14 15 16 16 15 15 15 15 15 15 15 15 15 15 16 17 16 16 16 16 17 18 18 18 18 18 18 20
19 19 20 21 21 21 20 19 18 18 18 18 18 17 16 17 18 18 17 16 15 15 15 15 15 14 14 14 14 15 15 15 15 15 15 15 16 16 16 16 17 17 17 18 18 18 19 20 21
19 20 20 21 22 22 23 22 19 19 18 18 18 18 18 18 18 18 17 17 17 16 14 14 14 14 14 14 15 15 15 14 15 16 16 17 17 17 17 17 18 17 17 17 17 17 18 20 20
20 20 20 21 22 22 23 23 20 20 20 19 19 19 19 18 18 18 18 18 17 16 15 15 14 14 14 14 15 15 15 15 15 16 17 17 17 18 18 18 18 17 17 18 18 19 19 19 19
Wind_Direction
204 201 197 196 184 193 205 243 275 286 283 283 283 287 297 303 306 303 309 305 302 302 304 302 297 296 294 290 283 279 279 280 282 281 284 288 290 288 289 292 294 295 297 298 293 294 294 290 286
209 206 204 195 190 209 222 259 276 276 277 276 279 282 286 294 300 300 300 303 299 299 300 298 294 292 293 290 284 281 280 279 279 280 281 282 285 286 290 292 292 292 293 291 289 290 288 287 283
215 212 215 209 208 221 230 260 277 280 284 280 281 282 284 289 297 298 295 299 298 298 297 294 291 289 288 287 285 284 283 281 279 279 278 279 280 283 286 288 285 287 289 286 285 286 284 282 281
216 215 219 221 221 228 237 262 276 282 284 282 285 283 285 288 292 295 296 296 294 291 289 289 289 288 286 286 286 283 281 280 279 276 276 277 278 279 280 281 283 284 285 283 281 282 280 278 281
223 223 224 226 225 234 258 273 284 290 288 290 289 286 287 291 290 290 291 291 291 291 288 288 289 288 286 284 283 281 279 278 279 276 273 273 273 274 275 278 281 283 283 280 280 280 278 280 281
227 231 231 227 230 242 257 278 288 292 292 291 292 292 294 290 285 287 287 291 293 294 293 293 290 288 285 284 281 281 278 276 277 276 273 272 274 275 273 276 279 280 280 279 279 277 275 278 279
230 234 234 233 240 250 266 281 288 293 293 294 296 297 297 293 290 286 292 291 292 292 291 292 289 286 284 283 279 276 275 274 275 273 273 273 275 274 271 272 276 276 276 276 276 274 273 275 276
229 229 232 237 244 249 268 277 287 295 296 297 296 297 297 294 293 288 291 292 288 291 289 288 288 287 287 282 279 277 276 273 272 272 274 273 272 272 272 272 273 274 274 274 273 272 270 269 270
234 232 233 238 243 252 267 277 285 291 293 296 297 296 296 295 295 289 291 292 289 289 290 288 286 286 286 283 280 279 276 274 272 271 272 271 270 270 270 270 273 274 272 270 269 270 268 265 267
235 234 234 242 249 257 266 274 278 283 285 291 296 298 299 298 296 291 289 291 292 292 291 290 285 282 284 285 282 280 278 277 274 270 269 269 266 267 268 270 271 274 271 266 265 267 265 263 268
236 235 233 237 249 257 262 269 275 279 285 294 298 300 301 299 299 294 290 291 293 292 289 287 282 281 280 281 281 281 278 275 270 270 266 266 262 262 265 268 269 269 268 267 266 266 265 266 266
240 239 237 237 246 253 258 265 272 281 290 296 300 302 304 299 296 295 297 297 295 295 289 284 278 278 279 280 278 280 277 272 267 269 267 264 261 261 263 265 266 266 267 265 264 264 265 265 267
243 243 242 243 247 255 260 266 271 278 289 297 301 301 301 299 298 299 301 300 296 293 287 283 276 275 276 278 277 275 275 276 269 269 265 261 261 261 261 262 262 263 266 265 265 264 264 264 267
243 240 238 239 244 251 256 263 270 281 289 293 296 300 299 303 307 303 301 299 297 294 290 286 279 275 276 279 278 277 273 272 268 265 261 263 261 260 259 258 259 260 261 262 264 262 263 264 266
237 236 239 241 247 252 260 266 273 278 286 292 296 298 302 306 307 305 302 301 298 295 289 285 283 280 280 279 277 276 274 273 266 264 262 264 263 261 259 255 257 258 259 263 261 263 265 266 268
238 239 242 247 256 258 262 268 276 278 282 288 294 297 300 303 304 305 302 302 302 297 290 285 283 281 279 277 276 276 275 272 266 263 261 263 262 260 257 254 256 257 259 260 262 264 267 268 270
241 246 248 249 259 263 267 273 275 279 280 285 291 295 299 301 304 304 304 302 302 297 290 284 281 280 279 277 276 276 273 268 264 263 260 259 257 256 255 258 258 258 259 261 263 264 268 271 271
247 253 254 256 260 263 268 273 275 280 282 285 290 294 300 302 302 302 303 301 298 293 284 280 279 278 279 278 277 278 272 264 260 261 259 255 254 257 256 258 258 259 260 263 266 266 267 269 269
257 262 260 260 263 266 271 272 273 278 284 290 294 295 299 301 301 300 301 302 297 290 281 278 279 279 277 275 274 275 274 261 263 264 258 255 257 259 257 259 261 262 261 264 267 266 267 267 267
263 265 265 262 264 268 270 271 273 277 286 293 292 294 298 301 303 301 301 302 298 291 282 277 275 276 275 272 273 272 269 270 269 266 263 256 257 256 258 261 263 264 265 265 267 267 270 270 268
258 264 266 266 270 268 270 267 270 277 283 292 293 293 299 303 304 305 304 303 298 289 282 278 275 270 270 270 272 270 269 268 269 264 263 262 261 261 263 262 263 266 268 268 269 269 270 270 272
257 264 267 269 271 269 270 270 271 280 283 290 295 294 299 305 308 308 308 302 300 290 282 276 275 271 269 270 270 269 266 266 267 266 266 263 261 260 262 262 263 265 269 270 272 272 273 273 275
263 262 262 266 269 268 268 271 273 281 285 290 294 296 301 304 307 309 309 304 298 292 286 280 277 275 272 272 273 270 268 265 266 267 264 261 259 260 261 263 265 266 268 271 274 276 274 274 276
268 268 261 264 267 268 271 271 272 278 285 290 297 300 302 304 306 307 309 306 298 290 288 283 280 278 274 272 272 272 270 267 267 267 263 259 258 261 264 264 267 267 268 270 273 275 274 274 275
266 268 265 264 266 269 271 273 275 275 281 287 293 299 301 302 304 303 302 300 296 289 286 284 281 280 277 274 271 273 271 269 270 269 265 261 261 262 263 265 270 272 273 273 273 274 274 273 275
264 264 268 270 272 272 273 277 278 277 280 282 287 292 297 299 298 298 297 294 292 288 289 285 281 281 279 275 272 271 272 272 273 271 268 267 265 265 266 268 270 273 273 273 272 273 274 274 277
260 262 268 271 270 274 275 276 279 279 282 283 286 289 292 296 297 297 296 291 291 290 288 285 280 278 278 276 275 273 273 275 275 275 271 270 267 265 266 268 270 273 275 277 274 273 274 276 277
259 262 264 265 271 276 276 277 277 280 282 284 285 287 287 291 294 292 293 293 291 288 288 288 286 281 278 276 276 276 276 277 275 276 276 272 267 264 265 268 271 273 275 277 276 275 275 279 280
254 258 260 262 269 275 277 277 279 284 283 283 286 287 286 287 291 292 290 288 289 290 291 291 285 280 277 273 273 274 276 275 273 274 275 273 270 269 269 269 269 270 272 273 276 279 282 285 283
253 256 260 265 267 271 276 279 279 281 282 284 284 284 285 286 288 291 287 287 286 287 288 289 283 277 273 272 273 275 275 276 275 275 277 276 273 273 272 270 270 270 273 274 277 279 282 284 283
Height
5903 5903 5904 5904 5905 5905 5904 5903 5903 5903 5903 5902 5902 5901 5901 5902 5903 5904 5902 5900 5899 5899 5898 5898 5898 5898 5897 5897 5897 5896 5896 5896 5895 5895 5895 5894 5894 5894 5893 5893 5893 5892 5892 5891 5890 5890 5889 5889 5888
5901 5902 5903 5903 5903 5903 5903 5902 5902 5902 5902 5901 5901 5901 5900 5900 5900 5900 5899 5898 5897 5897 5897 5897 5897 5896 5896 5895 5895 5895 5894 5894 5894 5894 5893 5893 5893 5893 5892 5892 5892 5891 5890 5890 5889 5889 5888 5888 5887
5900 5901 5902 5902 5901 5901 5901 5901 5900 5899 5900 5899 5899 5899 5898 5898 5898 5898 5897 5896 5896 5896 5896 5895 5895 5895 5894 5894 5893 5893 5893 5893 5892 5892 5892 5891 5891 5891 5891 5890 5890 5890 5889 5888 5888 5887 5887 5886 5886
5899 5900 5900 5901 5900 5900 5899 5898 5898 5897 5898 5898 5898 5897 5897 5896 5896 5896 5895 5895 5894 5894 5894 5893 5893 5893 5892 5892 5892 5891 5891 5891 5890 5890 5890 5889 5889 5889 5889 5889 5888 5888 5888 5887 5886 5886 5885 5885 5884
5897 5898 5898 5898 5898 5897 5897 5897 5896 5896 5896 5895 5895 5895 5894 5895 5894 5894 5893 5893 5892 5892 5892 5891 5891 5890 5890 5890 5889 5889 5888 5888 5888 5887 5887 5887 5887 5887 5887 5887 5886 5886 5885 5885 5885 5884 5884 5883 5883
5895 5896 5897 5897 5896 5896 5895 5895 5895 5894 5893 5893 5894 5893 5892 5892 5892 5891 5890 5890 5889 5889 5889 5889 5888 5888 5887 5887 5886 5886 5886 5885 5885 5885 5885 5885 5885 5885 5885 5885 5884 5884 5883 5883 5882 5882 5882 5882 5881
5893 5894 5894 5894 5894 5893 5893 5892 5892 5891 5891 5891 5891 5890 5890 5889 5889 5888 5888 5887 5886 5886 5886 5886 5884 5884 5884 5884 5883 5883 5883 5882 5882 5882 5882 5882 5882 5882 5882 5882 5882 5882 5881 5880 5880 5880 5880 5879 5879
5890 5892 5892 5892 5891 5891 5890 5890 5889 5889 5888 5888 5888 5888 5887 5887 5885 5885 5885 5884 5884 5883 5883 5882 5881 5880 5881 5880 5880 5879 5879 5879 5879 5879 5880 5879 5879 5879 5879 5879 5879 5879 5879 5878 5878 5878 5877 5877 5877
5887 5889 5889 5889 5890 5889 5888 5887 5887 5886 5885 5885 5885 5885 5884 5883 5882 5881 5881 5881 5881 5880 5880 5879 5879 5878 5878 5877 5877 5876 5876 5876 5876 5876 5876 5876 5876 5876 5876 5876 5876 5876 5876 5876 5875 5875 5875 5875 5874
5884 5886 5887 5888 5887 5886 5885 5885 5884 5884 5883 5882 5881 5881 5880 5880 5879 5878 5878 5877 5877 5876 5876 5875 5875 5875 5875 5874 5873 5872 5872 5872 5873 5872 5873 5873 5873 5873 5873 5873 5873 5873 5873 5873 5873 5872 5872 5872 5872
5882 5883 5884 5884 5884 5883 5882 5882 5882 5881 5880 5879 5879 5878 5877 5876 5875 5875 5874 5873 5873 5872 5872 5871 5871 5871 5871 5870 5870 5869 5868 5868 5868 5868 5868 5869 5869 5869 5870 5870 5870 5869 5870 5869 5869 5869 5869 5869 5869
5879 5879 5880 5881 5881 5880 5879 5879 5879 5878 5878 5877 5876 5875 5874 5873 5872 5871 5870 5869 5869 5868 5868 5867 5867 5867 5866 5866 5866 5865 5864 5863 5864 5864 5864 5864 5865 5865 5866 5866 5866 5866 5866 5866 5866 5866 5866 5866 5866
5875 5876 5877 5878 5878 5877 5876 5876 5876 5875 5875 5874 5873 5872 5871 5870 5868 5867 5866 5865 5864 5863 5863 5863 5863 5862 5862 5862 5861 5861 5860 5859 5859 5860 5860 5860 5861 5861 5862 5862 5862 5862 5863 5863 5863 5863 5863 5863 5863
5872 5872 5873 5874 5874 5873 5873 5873 5873 5873 5872 5872 5871 5869 5868 5867 5865 5864 5862 5861 5860 5859 5859 5858 5858 5858 5857 5857 5856 5856 5855 5855 5855 5855 5856 5857 5857 5857 5858 5858 5858 5859 5859 5860 5860 5860 5859 5859 5859
5868 5868 5869 5870 5870 5870 5869 5870 5870 5869 5869 5868 5867 5866 5864 5863 5861 5860 5858 5857 5856 5855 5854 5853 5853 5853 5853 5852 5851 5851 5850 5850 5851 5851 5852 5852 5853 5853 5853 5854 5855 5855 5856 5856 5856 5856 5856 5856 5856
5864 5865 5866 5867 5867 5867 5867 5866 5867 5866 5865 5865 5864 5863 5861 5860 5858 5856 5854 5853 5851 5850 5849 5848 5848 5848 5848 5848 5847 5847 5846 5846 5847 5848 5848 5848 5848 5849 5850 5851 5851 5852 5852 5852 5852 5852 5852 5852 5852
5861 5861 5862 5863 5863 5863 5863 5862 5863 5863 5862 5862 5860 5859 5857 5856 5853 5851 5849 5848 5847 5846 5845 5844 5844 5844 5844 5844 5843 5842 5842 5842 5843 5843 5844 5844 5845 5845 5846 5847 5847 5847 5848 5848 5848 5848 5848 5848 5848
5857 5857 5858 5859 5859 5858 5858 5858 5859 5859 5859 5858 5857 5855 5853 5851 5849 5847 5845 5843 5843 5842 5841 5840 5840 5839 5839 5839 5839 5838 5837 5837 5838 5839 5839 5840 5841 5842 5842 5842 5843 5843 5843 5843 5844 5844 5844 5844 5843
5853 5853 5853 5854 5855 5854 5854 5854 5854 5854 5854 5853 5852 5850 5849 5847 5845 5842 5840 5839 5838 5837 5836 5836 5835 5835 5835 5835 5835 5834 5833 5834 5834 5835 5835 5836 5837 5837 5838 5838 5838 5839 5839 5839 5839 5839 5839 5839 5839
5849 5849 5849 5850 5851 5851 5850 5850 5851 5851 5850 5850 5848 5847 5846 5844 5841 5838 5836 5834 5833 5832 5831 5830 5831 5831 5831 5831 5831 5831 5830 5830 5831 5832 5832 5832 5833 5833 5834 5834 5834 5834 5834 5835 5835 5835 5834 5834 5834
5846 5846 5846 5847 5847 5847 5846 5846 5847 5847 5846 5845 5844 5843 5842 5840 5837 5834 5831 5830 5828 5827 5826 5826 5826 5827 5827 5827 5827 5827 5827 5827 5828 5828 5828 5829 5829 5830 5830 5830 5830 5830 5830 5830 5830 5830 5830 5829 5829
5843 5843 5843 5843 5843 5844 5843 5842 5843 5842 5842 5841 5840 5838 5837 5835 5833 5830 5828 5826 5824 5824 5823 5823 5823 5823 5823 5823 5823 5824 5824 5824 5824 5824 5824 5824 5825 5826 5826 5826 5826 5826 5825 5825 5825 5825 5825 5824 5824
5839 5840 5839 5839 5839 5839 5839 5838 5839 5838 5838 5837 5835 5834 5833 5831 5829 5827 5825 5823 5822 5821 5820 5820 5819 5819 5819 5819 5820 5820 5820 5820 5820 5820 5820 5820 5821 5821 5821 5821 5821 5821 5821 5821 5821 5820 5820 5819 5819
5835 5836 5836 5835 5835 5835 5835 5834 5834 5834 5833 5832 5831 5830 5829 5827 5825 5824 5822 5820 5819 5818 5817 5816 5815 5815 5815 5815 5816 5816 5815 5815 5816 5816 5816 5816 5816 5816 5816 5816 5816 5816 5816 5816 5816 5815 5815 5814 5814
5832 5832 5831 5831 5830 5831 5831 5829 5830 5829 5828 5827 5826 5825 5825 5823 5822 5820 5819 5817 5816 5814 5814 5813 5812 5811 5811 5811 5811 5811 5811 5811 5811 5812 5811 5811 5812 5812 5812 5811 5811 5811 5811 5811 5810 5810 5810 5809 5809
5827 5828 5827 5826 5826 5826 5826 5825 5825 5825 5824 5822 5822 5821 5820 5818 5817 5816 5815 5813 5812 5811 5810 5809 5808 5808 5807 5807 5807 5808 5807 5807 5807 5807 5807 5807 5807 5807 5806 5806 5806 5806 5806 5806 5805 5805 5804 5804 5803
5822 5822 5822 5821 5820 5819 5820 5820 5820 5819 5819 5818 5817 5816 5815 5814 5813 5811 5810 5809 5808 5807 5806 5805 5804 5804 5803 5804 5804 5804 5803 5803 5802 5802 5802 5802 5802 5802 5802 5801 5801 5801 5801 5800 5800 5799 5798 5798 5797
5818 5818 5817 5816 5815 5814 5814 5815 5815 5814 5814 5813 5812 5811 5810 5809 5808 5807 5806 5804 5804 5803 5802 5801 5801 5800 5800 5800 5800 5800 5799 5798 5798 5797 5797 5797 5797 5797 5797 5797 5796 5796 5795 5795 5794 5793 5793 5792 5790
5813 5813 5812 5811 5811 5810 5809 5811 5810 5809 5808 5808 5807 5806 5805 5805 5803 5802 5801 5800 5799 5799 5798 5797 5797 5796 5796 5796 5795 5795 5795 5794 5794 5793 5793 5792 5792 5792 5792 5791 5791 5790 5790 5789 5789 5788 5787 5786 5784
5807 5807 5807 5807 5806 5805 5804 5807 5805 5804 5803 5802 5802 5801 5800 5799 5798 5797 5796 5795 5795 5794 5794 5793 5793 5792 5792 5791 5791 5790 5790 5790 5789 5789 5788 5787 5787 5787 5786 5786 5785 5785 5784 5784 5783 5782 5781 5780 5779